Regional Weather Roundup
Issued by NWS

Home | Current Version | Previous Version | Graphics & Text | Print | Product List | Glossary On
Versions: 1 2 3 4 5 6 7 8 9 10 11 12 13 14 15 16 17 18 19 20 21 22 23 24 25 26 27 28 29 30 31 32 33 34 35 36 37 38 39 40 41 42 43 44 45 46 47 48 49 50
000
ASUS43 KBIS 191210
RWRND

NORTH DAKOTA REGIONAL WEATHER ROUNDUP
NATIONAL WEATHER SERVICE BISMARCK ND
600 AM CST FRI JAN 19 2018

NOTE: "FAIR" INDICATES FEW OR NO CLOUDS BELOW 12,000 FEET WITH NO
SIGNIFICANT WEATHER AND/OR OBSTRUCTIONS TO VISIBILITY.


NDZ001>003-009>011-017-191300-
NORTHWEST NORTH DAKOTA

CITY           SKY/WX    TMP DP  RH WIND       PRES   REMARKS
WILLISTON      CLOUDY    39  30  70 W12       29.53F
6HR MIN TEMP:  42; 6HR MAX TEMP:  59;

MINOT          PTCLDY    41  31  67 SW17      29.46F
MINOT AFB      CLOUDY    38  31  75 W14       29.44F
$$

NDZ018>021-031>035-040>046-191300-
SOUTHWEST NORTH DAKOTA

CITY           SKY/WX    TMP DP  RH WIND       PRES   REMARKS
BISMARCK       PTCLDY    21  19  92 S5        29.55R WCI  15
6HR MIN TEMP:  20; 6HR MAX TEMP:  35;

DICKINSON      PTCLDY    33  25  72 NW14      29.54S
GARRISON         N/A     32  26  78 W3        29.50F
6HR MIN TEMP:  26; 6HR MAX TEMP:  36;

HETTINGER ARPT PTCLDY    24  19  81 NW7       29.57R WCI  16
$$

NDZ004>008-012>016-024-026-027-054-191300-
NORTHEAST NORTH DAKOTA

CITY           SKY/WX    TMP DP  RH WIND       PRES   REMARKS
GRAND FORKS    CLOUDY    34  30  85 S7        29.45F
GRND FRKS AFB  CLOUDY    38  29  72 W8        29.45F
DEVILS LAKE    FAIR      28  25  88 SW12      29.48S WCI  18
$$

NDZ022-023-025-028>030-036>039-047>053-191300-
SOUTHEAST NORTH DAKOTA

CITY           SKY/WX    TMP DP  RH WIND       PRES   REMARKS
FARGO          FAIR      28  25  88 S8          N/A  WCI  20
6HR MIN TEMP:  28; 6HR MAX TEMP:  34;

JAMESTOWN      CLOUDY    32  27  81 CALM      29.49F
$$





USA.gov is the U.S. government's official web portal to all federal, state and local government web resources and services.